Location: Ariel
(45.9570°N, 122.5700°W)
Time: 13:44:45
(UTC-07:00)

Vanguard 3 - Pass Details

Date: 31 August 2019
Orbit: 508 x 3262 km, 33.3° (Epoch: 13 October)

Event Time Altitude Azimuth Distance (km) Brightness Sun altitude
Rises 13:06:04 0° 207° (SSW) 7,111 12.4 52.5°
Reaches altitude 10° 13:12:44 10° 195° (SSW) 5,832 12.3 52.6°
Maximum altitude 13:24:07 22° 154° (SSE) 4,132 11.7 52.4°
Drops below altitude 10° 13:32:37 10° 109° (ESE) 4,252 11.0 52.3°
Sets 13:36:24 0° 95° (E) 4,823 11.1 52.1°
